{"data":{"norad_id":63061,"intl_designator":"2025-035K","name":"STARLINK-11409 [DTC]","alt_names":[],"object_type":"PAYLOAD","status":"ACTIVE","operator":null,"country":"US","launch_date":"2025-02-21","launch_site_code":"AFETR","launch_vehicle":null,"mission":null,"orbit_class":"UNKNOWN","rcs_meters":null,"size_class":null,"mass_kg":null,"dimensions":null,"purposes":["comms"],"wikipedia_slug":null,"has_3d_model":false,"image_url":null,"decayed_at":null,"tle_current":{"epoch":"2026-05-24T18:21:42.003936Z","epoch_age_seconds":96164,"freshness":"FRESH","line1":"1 63061U 25035K   26144.76506949  .00159455  00000+0  12224-2 0  9995","line2":"2 63061  42.9987 276.9516 0001640 251.3839 108.6851 15.70842065 73181","mean_motion":15.70842065,"eccentricity":0.000164,"inclination_deg":42.9987,"raan_deg":276.9516,"arg_perigee_deg":251.3839,"mean_anomaly_deg":108.6851,"bstar":0.0012224,"rev_number":7318,"period_min":91.670577971185,"perigee_km":355.38468072841,"apogee_km":357.5936381087,"semimajor_km":6734.6261594186,"source":"CELESTRAK","updated_at":"2026-05-25T13:38:19.873011Z"}}}